Time,TemperatureF,DewpointF,PressureIn,WindDirection,WindDirectionDegrees,WindSpeedMPH,WindSpeedGustMPH,Humidity,HourlyPrecipIn,Conditions,Clouds,dailyrainin,SolarRadiationWatts/m^2,SoftwareType,DateUTC
2013-01-22 00:04:00,50.0,38.0,-100.00,WSW,253,4.0,7.0,63,0.00,,,0.00,0.000000,,2013-01-22 05:04:00,
2013-01-22 00:33:00,50.0,35.0,-100.00,West,281,8.0,15.0,57,0.00,,,0.00,0.000000,,2013-01-22 05:33:00,
2013-01-22 00:43:00,50.0,35.0,-100.00,West,281,8.0,15.0,57,0.00,,,0.00,0.000000,,2013-01-22 05:43:00,
2013-01-22 00:53:00,50.0,35.0,-100.00,West,281,8.0,15.0,57,0.00,,,0.00,0.000000,,2013-01-22 05:53:00,
2013-01-22 01:02:00,50.0,35.0,-100.00,West,281,8.0,15.0,57,0.00,,,0.00,0.000000,,2013-01-22 06:02:00,
2013-01-22 01:33:00,50.0,30.0,-100.00,NW,307,9.0,17.0,46,0.00,,,0.00,0.000000,,2013-01-22 06:33:00,
2013-01-22 01:43:00,50.0,30.0,-100.00,NW,307,9.0,17.0,46,0.00,,,0.00,0.000000,,2013-01-22 06:43:00,
2013-01-22 01:53:00,50.0,30.0,-100.00,NW,307,9.0,17.0,46,0.00,,,0.00,0.000000,,2013-01-22 06:53:00,
2013-01-22 02:02:00,50.0,30.0,-100.00,NW,307,9.0,17.0,46,0.00,,,0.00,0.000000,,2013-01-22 07:02:00,
2013-01-22 02:33:00,47.0,26.0,-100.00,NW,309,8.0,15.0,44,0.00,,,0.00,0.000000,,2013-01-22 07:33:00,
2013-01-22 02:43:00,47.0,26.0,-100.00,NW,309,8.0,15.0,44,0.00,,,0.00,0.000000,,2013-01-22 07:43:00,
2013-01-22 02:53:00,47.0,26.0,-100.00,NW,309,8.0,15.0,44,0.00,,,0.00,0.000000,,2013-01-22 07:53:00,
2013-01-22 03:02:00,47.0,26.0,-100.00,NW,309,8.0,15.0,44,0.00,,,0.00,0.000000,,2013-01-22 08:02:00,
2013-01-22 03:33:00,46.0,25.0,-100.00,NW,307,8.0,14.0,44,0.00,,,0.00,0.000000,,2013-01-22 08:33:00,
2013-01-22 03:43:00,46.0,25.0,-100.00,NW,307,8.0,14.0,44,0.00,,,0.00,0.000000,,2013-01-22 08:43:00,
2013-01-22 03:53:00,46.0,25.0,-100.00,NW,307,8.0,14.0,44,0.00,,,0.00,0.000000,,2013-01-22 08:53:00,
2013-01-22 04:02:00,46.0,25.0,-100.00,NW,307,8.0,14.0,44,0.00,,,0.00,0.000000,,2013-01-22 09:02:00,
2013-01-22 04:33:00,42.0,23.0,-100.00,NW,304,6.0,9.0,46,0.00,,,0.00,0.000000,,2013-01-22 09:33:00,
2013-01-22 04:43:00,42.0,23.0,-100.00,NW,304,6.0,9.0,46,0.00,,,0.00,0.000000,,2013-01-22 09:43:00,
2013-01-22 04:53:00,42.0,23.0,-100.00,NW,304,6.0,9.0,46,0.00,,,0.00,0.000000,,2013-01-22 09:53:00,
2013-01-22 05:03:00,42.0,23.0,-100.00,NW,304,6.0,9.0,46,0.00,,,0.00,0.000000,,2013-01-22 10:03:00,
2013-01-22 05:33:00,41.0,22.0,-100.00,NW,306,5.0,8.0,47,0.00,,,0.00,0.000000,,2013-01-22 10:33:00,
2013-01-22 05:43:00,41.0,22.0,-100.00,NW,306,5.0,8.0,47,0.00,,,0.00,0.000000,,2013-01-22 10:43:00,
2013-01-22 05:53:00,41.0,22.0,-100.00,NW,306,5.0,8.0,47,0.00,,,0.00,0.000000,,2013-01-22 10:53:00,
2013-01-22 06:02:00,41.0,22.0,-100.00,NW,306,5.0,8.0,47,0.00,,,0.00,0.000000,,2013-01-22 11:02:00,
2013-01-22 06:33:00,36.0,24.0,-100.00,NW,320,3.0,6.0,61,0.00,,,0.00,0.000000,,2013-01-22 11:33:00,
2013-01-22 06:43:00,36.0,24.0,-100.00,NW,320,3.0,6.0,61,0.00,,,0.00,0.000000,,2013-01-22 11:43:00,
2013-01-22 06:53:00,36.0,24.0,-100.00,NW,320,3.0,6.0,61,0.00,,,0.00,0.000000,,2013-01-22 11:53:00,
2013-01-22 07:04:00,36.0,24.0,-100.00,NW,320,3.0,6.0,61,0.00,,,0.00,0.000000,,2013-01-22 12:04:00,
2013-01-22 07:33:00,37.0,20.0,-100.00,NNW,344,4.0,8.0,50,0.00,,,0.00,0.000000,,2013-01-22 12:33:00,
2013-01-22 07:43:00,37.0,20.0,-100.00,NNW,344,4.0,8.0,50,0.00,,,0.00,0.000000,,2013-01-22 12:43:00,
2013-01-22 07:53:00,37.0,20.0,-100.00,NNW,344,4.0,8.0,50,0.00,,,0.00,0.000000,,2013-01-22 12:53:00,
2013-01-22 08:04:00,37.0,20.0,-100.00,NNW,344,4.0,8.0,50,0.00,,,0.00,0.000000,,2013-01-22 13:04:00,
2013-01-22 08:34:00,38.0,15.0,-100.00,North,354,8.0,16.0,39,0.00,,,0.00,31.000000,,2013-01-22 13:34:00,
2013-01-22 08:43:00,38.0,15.0,-100.00,North,354,8.0,16.0,39,0.00,,,0.00,31.000000,,2013-01-22 13:43:00,
2013-01-22 08:54:00,38.0,15.0,-100.00,North,354,8.0,16.0,39,0.00,,,0.00,31.000000,,2013-01-22 13:54:00,
2013-01-22 09:03:00,38.0,15.0,-100.00,North,354,8.0,16.0,39,0.00,,,0.00,31.000000,,2013-01-22 14:03:00,
2013-01-22 09:34:00,39.0,14.0,-100.00,North,3,11.0,20.0,35,0.00,,,0.00,220.000000,,2013-01-22 14:34:00,
2013-01-22 09:44:00,39.0,14.0,-100.00,North,3,11.0,20.0,35,0.00,,,0.00,220.000000,,2013-01-22 14:44:00,
2013-01-22 09:54:00,39.0,14.0,-100.00,North,3,11.0,20.0,35,0.00,,,0.00,220.000000,,2013-01-22 14:54:00,
2013-01-22 10:04:00,39.0,14.0,-100.00,North,3,11.0,20.0,35,0.00,,,0.00,220.000000,,2013-01-22 15:04:00,
2013-01-22 10:34:00,40.0,10.0,-100.00,North,354,11.0,21.0,29,0.00,,,0.00,452.000000,,2013-01-22 15:34:00,
2013-01-22 10:44:00,40.0,10.0,-100.00,North,354,11.0,21.0,29,0.00,,,0.00,452.000000,,2013-01-22 15:44:00,
2013-01-22 10:54:00,40.0,10.0,-100.00,North,354,11.0,21.0,29,0.00,,,0.00,452.000000,,2013-01-22 15:54:00,
2013-01-22 11:04:00,40.0,10.0,-100.00,North,354,11.0,21.0,29,0.00,,,0.00,452.000000,,2013-01-22 16:04:00,
2013-01-22 11:33:00,42.0,11.0,-100.00,NNW,337,9.0,20.0,28,0.00,,,0.00,606.000000,,2013-01-22 16:33:00,
2013-01-22 11:43:00,42.0,11.0,-100.00,NNW,337,9.0,20.0,28,0.00,,,0.00,606.000000,,2013-01-22 16:43:00,
2013-01-22 11:54:00,42.0,11.0,-100.00,NNW,337,9.0,20.0,28,0.00,,,0.00,606.000000,,2013-01-22 16:54:00,
2013-01-22 12:04:00,42.0,11.0,-100.00,NNW,337,9.0,20.0,28,0.00,,,0.00,606.000000,,2013-01-22 17:04:00,
2013-01-22 12:35:00,43.0,10.0,-100.00,NNW,328,12.0,20.0,25,0.00,,,0.00,698.000000,,2013-01-22 17:35:00,
2013-01-22 12:44:00,43.0,10.0,-100.00,NNW,328,12.0,20.0,25,0.00,,,0.00,698.000000,,2013-01-22 17:44:00,
2013-01-22 12:54:00,43.0,10.0,-100.00,NNW,328,12.0,20.0,25,0.00,,,0.00,698.000000,,2013-01-22 17:54:00,
2013-01-22 13:04:00,43.0,10.0,-100.00,NNW,328,12.0,20.0,25,0.00,,,0.00,698.000000,,2013-01-22 18:04:00,
2013-01-22 13:34:00,44.0,9.0,-100.00,NW,306,11.0,21.0,23,0.00,,,0.00,723.000000,,2013-01-22 18:34:00,
2013-01-22 13:44:00,44.0,9.0,-100.00,NW,306,11.0,21.0,23,0.00,,,0.00,723.000000,,2013-01-22 18:44:00,
2013-01-22 13:54:00,44.0,9.0,-100.00,NW,306,11.0,21.0,23,0.00,,,0.00,723.000000,,2013-01-22 18:54:00,
2013-01-22 14:04:00,44.0,9.0,-100.00,NW,306,11.0,21.0,23,0.00,,,0.00,723.000000,,2013-01-22 19:04:00,
2013-01-22 14:34:00,44.0,7.0,-100.00,NW,321,12.0,19.0,21,0.00,,,0.00,673.000000,,2013-01-22 19:34:00,
2013-01-22 14:44:00,44.0,7.0,-100.00,NW,321,12.0,19.0,21,0.00,,,0.00,673.000000,,2013-01-22 19:44:00,
2013-01-22 14:54:00,44.0,7.0,-100.00,NW,321,12.0,19.0,21,0.00,,,0.00,673.000000,,2013-01-22 19:54:00,
2013-01-22 15:03:00,44.0,7.0,-100.00,NW,321,12.0,19.0,21,0.00,,,0.00,673.000000,,2013-01-22 20:03:00,
2013-01-22 15:34:00,44.0,6.0,-100.00,NW,319,10.0,19.0,20,0.00,,,-99.99,557.000000,,2013-01-22 20:34:00,
2013-01-22 15:43:00,44.0,6.0,-100.00,NW,319,10.0,19.0,20,0.00,,,-99.99,557.000000,,2013-01-22 20:43:00,
2013-01-22 15:54:00,44.0,6.0,-100.00,NW,319,10.0,19.0,20,0.00,,,-99.99,557.000000,,2013-01-22 20:54:00,
2013-01-22 16:04:00,44.0,6.0,-100.00,NW,319,10.0,19.0,20,0.00,,,-99.99,557.000000,,2013-01-22 21:04:00,
2013-01-22 16:34:00,43.0,2.0,-100.00,NW,314,10.0,17.0,18,0.00,,,0.00,382.000000,,2013-01-22 21:34:00,
2013-01-22 16:43:00,43.0,2.0,-100.00,NW,314,10.0,17.0,18,0.00,,,0.00,382.000000,,2013-01-22 21:43:00,
2013-01-22 16:53:00,43.0,2.0,-100.00,NW,314,10.0,17.0,18,0.00,,,0.00,382.000000,,2013-01-22 21:53:00,
2013-01-22 17:03:00,43.0,2.0,-100.00,NW,314,10.0,17.0,18,0.00,,,0.00,382.000000,,2013-01-22 22:03:00,
2013-01-22 17:33:00,41.0,6.0,-100.00,NW,319,7.0,17.0,23,0.00,,,0.00,171.000000,,2013-01-22 22:33:00,
2013-01-22 17:43:00,41.0,6.0,-100.00,NW,319,7.0,17.0,23,0.00,,,0.00,171.000000,,2013-01-22 22:43:00,
2013-01-22 17:53:00,41.0,6.0,-100.00,NW,319,7.0,17.0,23,0.00,,,0.00,171.000000,,2013-01-22 22:53:00,
2013-01-22 18:03:00,41.0,6.0,-100.00,NW,319,7.0,17.0,23,0.00,,,0.00,171.000000,,2013-01-22 23:03:00,
2013-01-22 18:34:00,36.0,8.0,-100.00,NNW,346,3.0,12.0,30,0.00,,,0.00,9.000000,,2013-01-22 23:34:00,
2013-01-22 18:43:00,36.0,8.0,-100.00,NNW,346,3.0,12.0,30,0.00,,,0.00,9.000000,,2013-01-22 23:43:00,
2013-01-22 18:53:00,36.0,8.0,-100.00,NNW,346,3.0,12.0,30,0.00,,,0.00,9.000000,,2013-01-22 23:53:00,
2013-01-22 19:03:00,36.0,8.0,-100.00,NNW,346,3.0,12.0,30,0.00,,,0.00,9.000000,,2013-01-23 00:03:00,
2013-01-22 19:33:00,29.0,11.0,-100.00,NNE,17,1.0,3.0,46,0.00,,,0.00,0.000000,,2013-01-23 00:33:00,
2013-01-22 19:43:00,29.0,11.0,-100.00,NNE,17,1.0,3.0,46,0.00,,,0.00,0.000000,,2013-01-23 00:43:00,
2013-01-22 19:53:00,29.0,11.0,-100.00,NNE,17,1.0,3.0,46,0.00,,,0.00,0.000000,,2013-01-23 00:53:00,
2013-01-22 20:03:00,29.0,11.0,-100.00,NNE,17,1.0,3.0,46,0.00,,,0.00,0.000000,,2013-01-23 01:03:00,
2013-01-22 20:33:00,30.0,13.0,-100.00,NNE,28,4.0,5.0,49,0.00,,,-99.99,0.000000,,2013-01-23 01:33:00,
2013-01-22 20:43:00,30.0,13.0,-100.00,NNE,28,4.0,5.0,49,0.00,,,-99.99,0.000000,,2013-01-23 01:43:00,
2013-01-22 20:53:00,30.0,13.0,-100.00,NNE,28,4.0,5.0,49,0.00,,,-99.99,0.000000,,2013-01-23 01:53:00,
2013-01-22 21:03:00,30.0,13.0,-100.00,NNE,28,4.0,5.0,49,0.00,,,-99.99,0.000000,,2013-01-23 02:03:00,
2013-01-22 21:33:00,29.0,14.0,-100.00,NNE,23,3.0,5.0,54,0.00,,,0.00,0.000000,,2013-01-23 02:33:00,
2013-01-22 21:43:00,29.0,14.0,-100.00,NNE,23,3.0,5.0,54,0.00,,,0.00,0.000000,,2013-01-23 02:43:00,
2013-01-22 21:53:00,29.0,14.0,-100.00,NNE,23,3.0,5.0,54,0.00,,,0.00,0.000000,,2013-01-23 02:53:00,
2013-01-22 22:03:00,29.0,14.0,-100.00,NNE,23,3.0,5.0,54,0.00,,,0.00,0.000000,,2013-01-23 03:03:00,
2013-01-22 22:33:00,28.0,15.0,-100.00,NNE,12,4.0,5.0,58,0.00,,,0.00,0.000000,,2013-01-23 03:33:00,
2013-01-22 22:43:00,28.0,15.0,-100.00,NNE,12,4.0,5.0,58,0.00,,,0.00,0.000000,,2013-01-23 03:43:00,
2013-01-22 22:53:00,28.0,15.0,-100.00,NNE,12,4.0,5.0,58,0.00,,,0.00,0.000000,,2013-01-23 03:53:00,
2013-01-22 23:03:00,28.0,15.0,-100.00,NNE,12,4.0,5.0,58,0.00,,,0.00,0.000000,,2013-01-23 04:03:00,
2013-01-22 23:33:00,26.0,13.0,-100.00,NNE,24,3.0,7.0,58,0.00,,,0.00,0.000000,,2013-01-23 04:33:00,
2013-01-22 23:43:00,26.0,13.0,-100.00,NNE,24,3.0,7.0,58,0.00,,,0.00,0.000000,,2013-01-23 04:43:00,
2013-01-22 23:53:00,26.0,13.0,-100.00,NNE,24,3.0,7.0,58,0.00,,,0.00,0.000000,,2013-01-23 04:53:00,